Total_Precipitation_Accumulation
0.10 0.11 0.13 0.13 0.13 0.13 0.19 0.26 0.28 0.34 0.32 0.24 0.23 0.20 0.20 0.17 0.16 0.11 0.09 0.12 0.16 0.20 0.24 0.21 0.27 0.19 0.05 0.00 0.00 0.00 0.00 0.00 0.00 0.00 0.00 0.02 0.04 0.06 0.06 0.07 0.09 0.08 0.01 0.03 0.16 0.22 0.25
0.11 0.13 0.14 0.13 0.12 0.15 0.24 0.29 0.36 0.42 0.22 0.19 0.22 0.20 0.21 0.22 0.24 0.15 0.11 0.14 0.14 0.13 0.19 0.36 0.48 0.16 0.02 0.03 0.00 0.00 0.00 0.00 0.00 0.01 0.02 0.03 0.04 0.10 0.12 0.08 0.15 0.07 0.03 0.11 0.31 0.30 0.37
0.12 0.14 0.13 0.11 0.13 0.20 0.22 0.20 0.12 0.07 0.09 0.15 0.19 0.23 0.26 0.27 0.24 0.17 0.16 0.17 0.20 0.21 0.22 0.45 0.47 0.39 0.15 0.04 0.00 0.00 0.00 0.00 0.01 0.03 0.04 0.04 0.07 0.16 0.20 0.11 0.08 0.07 0.13 0.13 0.39 0.45 0.54
0.14 0.14 0.12 0.13 0.19 0.21 0.19 0.13 0.07 0.10 0.12 0.20 0.22 0.22 0.21 0.28 0.31 0.25 0.16 0.13 0.12 0.13 0.33 0.81 0.96 0.34 0.32 0.07 0.01 0.00 0.00 0.00 0.03 0.00 0.00 0.01 0.09 0.23 0.25 0.22 0.17 0.16 0.28 0.26 0.30 0.43 0.79
0.14 0.14 0.16 0.19 0.29 0.21 0.15 0.12 0.12 0.15 0.19 0.26 0.24 0.32 0.37 0.39 0.33 0.39 0.41 0.57 0.32 0.25 0.39 0.78 0.66 0.36 0.28 0.05 0.04 0.01 0.00 0.00 0.03 0.01 0.02 0.11 0.10 0.19 0.21 0.30 0.24 0.14 0.20 0.31 0.34 0.31 0.75
0.16 0.20 0.24 0.29 0.30 0.15 0.17 0.15 0.18 0.24 0.37 0.40 0.43 0.76 0.68 0.35 0.35 0.30 0.30 1.22 1.37 0.40 0.69 0.50 0.36 0.27 0.19 0.04 0.02 0.03 0.00 0.00 0.01 0.04 0.06 0.11 0.26 0.24 0.16 0.25 0.20 0.09 0.10 0.16 0.30 0.29 0.50
0.22 0.34 0.28 0.41 0.18 0.17 0.17 0.19 0.24 0.35 0.41 0.39 0.48 0.63 0.44 0.33 0.24 0.21 0.22 0.58 0.98 0.95 0.72 0.33 0.15 0.07 0.03 0.01 0.00 0.01 0.00 0.00 0.01 0.08 0.13 0.15 0.38 0.43 0.08 0.05 0.10 0.06 0.11 0.13 0.37 0.54 0.31
0.34 0.40 0.39 0.28 0.17 0.15 0.19 0.20 0.27 0.34 0.27 0.23 0.31 0.35 0.31 0.26 0.31 0.26 0.11 0.25 0.47 0.78 0.79 0.39 0.13 0.02 0.01 0.02 0.00 0.00 0.00 0.00 0.00 0.01 0.04 0.05 0.09 0.41 0.25 0.11 0.08 0.08 0.10 0.14 0.24 0.51 0.43
0.43 0.41 0.30 0.16 0.12 0.14 0.17 0.19 0.29 0.24 0.24 0.26 0.27 0.24 0.23 0.26 0.26 0.34 0.21 0.16 0.26 0.22 0.38 0.32 0.17 0.08 0.02 0.00 0.00 0.00 0.00 0.00 0.00 0.00 0.02 0.03 0.01 0.12 0.13 0.13 0.16 0.09 0.06 0.08 0.26 0.25 0.20
0.47 0.31 0.15 0.09 0.11 0.14 0.15 0.16 0.18 0.21 0.24 0.23 0.27 0.33 0.29 0.23 0.13 0.16 0.47 0.31 0.09 0.03 0.16 0.30 0.16 0.12 0.02 0.00 0.00 0.00 0.00 0.00 0.00 0.00 0.01 0.01 0.01 0.04 0.08 0.12 0.16 0.11 0.06 0.11 0.24 0.34 0.38
0.45 0.20 0.10 0.09 0.13 0.13 0.15 0.15 0.24 0.30 0.41 0.35 0.27 0.21 0.23 0.16 0.19 0.21 0.17 0.22 0.06 0.03 0.22 0.19 0.07 0.03 0.02 0.00 0.00 0.00 0.00 0.00 0.00 0.00 0.01 0.04 0.07 0.07 0.07 0.17 0.18 0.16 0.08 0.09 0.06 0.13 0.59
0.30 0.12 0.10 0.11 0.13 0.14 0.16 0.22 0.45 0.54 0.37 0.20 0.15 0.14 0.19 0.18 0.10 0.14 0.07 0.06 0.02 0.13 0.30 0.16 0.07 0.07 0.02 0.01 0.03 0.00 0.00 0.00 0.00 0.01 0.06 0.04 0.03 0.05 0.09 0.15 0.25 0.12 0.14 0.09 0.06 0.17 0.61
0.18 0.07 0.11 0.14 0.15 0.15 0.26 0.52 0.60 0.28 0.11 0.12 0.13 0.16 0.14 0.08 0.16 0.12 0.07 0.06 0.12 0.26 0.20 0.11 0.05 0.01 0.03 0.03 0.03 0.00 0.00 0.00 0.01 0.09 0.09 0.03 0.03 0.04 0.11 0.28 0.25 0.12 0.25 0.34 0.38 0.53 0.41
0.08 0.07 0.13 0.18 0.26 0.36 0.46 0.64 0.40 0.16 0.12 0.10 0.08 0.12 0.12 0.05 0.15 0.13 0.10 0.18 0.36 0.28 0.13 0.02 0.00 0.01 0.03 0.02 0.02 0.01 0.00 0.00 0.00 0.03 0.07 0.05 0.09 0.16 0.14 0.23 0.27 0.29 0.30 0.47 0.39 0.41 0.45
0.06 0.11 0.18 0.22 0.39 0.50 0.47 0.27 0.14 0.11 0.14 0.10 0.13 0.20 0.13 0.09 0.17 0.18 0.15 0.26 0.35 0.16 0.03 0.01 0.01 0.02 0.02 0.01 0.00 0.00 0.00 0.02 0.04 0.02 0.10 0.06 0.13 0.09 0.24 0.28 0.20 0.07 0.15 0.34 0.50 0.37 0.28
0.08 0.16 0.23 0.36 0.41 0.36 0.35 0.13 0.15 0.16 0.16 0.17 0.30 0.29 0.23 0.21 0.20 0.26 0.22 0.23 0.17 0.03 0.00 0.01 0.03 0.01 0.00 0.00 0.00 0.00 0.01 0.03 0.09 0.02 0.02 0.07 0.22 0.38 0.28 0.25 0.06 0.01 0.11 0.17 0.17 0.23 0.31
0.13 0.21 0.32 0.33 0.33 0.41 0.26 0.12 0.12 0.16 0.17 0.19 0.22 0.27 0.32 0.57 0.33 0.38 0.20 0.19 0.15 0.01 0.00 0.01 0.02 0.00 0.00 0.00 0.01 0.08 0.11 0.07 0.06 0.12 0.08 0.19 0.41 0.29 0.09 0.06 0.02 0.05 0.10 0.02 0.01 0.02 0.09
0.19 0.29 0.28 0.24 0.24 0.19 0.08 0.09 0.12 0.26 0.19 0.23 0.31 0.27 0.45 0.73 0.48 0.23 0.09 0.11 0.13 0.00 0.00 0.00 0.01 0.00 0.00 0.00 0.02 0.09 0.10 0.07 0.03 0.09 0.16 0.09 0.11 0.07 0.02 0.00 0.00 0.01 0.01 0.00 0.00 0.01 0.00
0.26 0.25 0.18 0.14 0.14 0.08 0.05 0.11 0.22 0.41 0.38 0.37 0.31 0.32 0.67 0.46 0.20 0.07 0.10 0.15 0.05 0.00 0.02 0.04 0.04 0.00 0.00 0.02 0.02 0.02 0.01 0.01 0.00 0.00 0.00 0.00 0.01 0.03 0.01 0.00 0.00 0.00 0.00 0.00 0.01 0.00 0.00
0.28 0.19 0.12 0.08 0.09 0.09 0.16 0.37 0.40 0.40 0.38 0.48 0.23 0.32 0.79 0.53 0.08 0.02 0.13 0.13 0.03 0.00 0.00 0.01 0.01 0.00 0.01 0.00 0.00 0.00 0.00 0.00 0.00 0.00 0.00 0.00 0.00 0.01 0.01 0.00 0.00 0.00 0.00 0.00 0.00 0.00 0.00
0.19 0.11 0.06 0.05 0.06 0.11 0.26 0.71 0.93 0.46 0.30 0.41 0.17 0.08 0.14 0.14 0.06 0.04 0.09 0.05 0.00 0.00 0.01 0.00 0.01 0.00 0.01 0.00 0.00 0.00 0.00 0.00 0.00 0.00 0.00 0.00 0.00 0.00 0.00 0.00 0.00 0.00 0.00 0.00 0.00 0.00 0.00
0.09 0.04 0.03 0.03 0.07 0.13 0.16 0.32 0.57 0.23 0.22 0.18 0.04 0.02 0.01 0.03 0.03 0.14 0.06 0.01 0.00 0.00 0.01 0.01 0.01 0.00 0.00 0.00 0.00 0.00 0.00 0.00 0.00 0.00 0.00 0.00 0.00 0.00 0.00 0.00 0.00 0.00 0.00 0.00 0.00 0.00 0.00
0.04 0.01 0.01 0.03 0.11 0.12 0.14 0.21 0.74 0.14 0.10 0.07 0.02 0.00 0.01 0.06 0.09 0.06 0.01 0.00 0.00 0.00 0.00 0.00 0.00 0.00 0.00 0.00 0.00 0.00 0.00 0.00 0.00 0.00 0.00 0.00 0.00 0.00 0.00 0.00 0.00 0.00 0.00 0.00 0.00 0.00 0.00
0.01 0.01 0.00 0.03 0.13 0.17 0.09 0.09 0.40 0.13 0.05 0.04 0.05 0.01 0.00 0.01 0.01 0.00 0.00 0.00 0.00 0.00 0.00 0.00 0.00 0.00 0.00 0.00 0.00 0.00 0.00 0.00 0.00 0.00 0.00 0.00 0.00 0.00 0.00 0.00 0.00 0.00 0.00 0.00 0.00 0.00 0.00
0.01 0.00 0.00 0.02 0.11 0.13 0.07 0.03 0.13 0.14 0.04 0.09 0.10 0.00 0.00 0.00 0.00 0.00 0.00 0.00 0.00 0.00 0.00 0.00 0.00 0.00 0.00 0.00 0.00 0.00 0.00 0.00 0.00 0.00 0.00 0.00 0.00 0.00 0.00 0.00 0.00 0.00 0.00 0.00 0.00 0.00 0.00
0.00 0.00 0.00 0.02 0.09 0.10 0.09 0.10 0.19 0.07 0.02 0.04 0.03 0.00 0.00 0.00 0.00 0.00 0.00 0.00 0.00 0.00 0.00 0.00 0.00 0.00 0.00 0.00 0.00 0.00 0.00 0.00 0.00 0.00 0.00 0.00 0.00 0.00 0.00 0.00 0.00 0.00 0.00 0.00 0.00 0.00 0.00
0.00 0.00 0.01 0.04 0.04 0.10 0.19 0.14 0.10 0.04 0.01 0.00 0.00 0.00 0.00 0.00 0.00 0.00 0.00 0.00 0.00 0.00 0.00 0.00 0.00 0.00 0.00 0.00 0.00 0.00 0.00 0.00 0.00 0.00 0.00 0.00 0.00 0.00 0.00 0.00 0.00 0.00 0.00 0.00 0.00 0.00 0.00
0.00 0.00 0.01 0.09 0.02 0.07 0.18 0.12 0.08 0.02 0.01 0.00 0.00 0.00 0.00 0.00 0.00 0.00 0.00 0.00 0.00 0.00 0.00 0.00 0.00 0.00 0.00 0.00 0.00 0.00 0.00 0.00 0.00 0.00 0.00 0.00 0.00 0.00 0.00 0.00 0.00 0.00 0.00 0.00 0.00 0.00 0.00
0.00 0.01 0.01 0.07 0.03 0.04 0.07 0.09 0.04 0.01 0.00 0.00 0.00 0.00 0.00 0.00 0.00 0.00 0.00 0.00 0.00 0.00 0.00 0.00 0.00 0.00 0.00 0.00 0.00 0.00 0.00 0.00 0.00 0.00 0.00 0.00 0.00 0.00 0.00 0.00 0.00 0.00 0.00 0.00 0.00 0.00 0.00